Regional Weather Roundup
Issued by NWS

Home | Current Version | Previous Version | Text Only | Print | Product List | Glossary On
Versions: 1 2 3 4 5 6 7 8 9 10 11 12 13 14 15 16 17 18 19 20 21 22 23 24 25 26 27 28 29 30 31 32 33 34 35 36 37 38 39 40 41 42 43 44 45 46 47 48 49 50
000
ASUS43 KMPX 190501
RWRMN
WEATHER ROUNDUP FOR MINNESOTA
NATIONAL WEATHER SERVICE TWIN CITIES/CHANHASSEN MN
1200 AM CDT THU APR 19 2018


NOTE: "FAIR" INDICATES FEW OR NO CLOUDS BELOW 12,000 FEET WITH NO
SIGNIFICANT WEATHER AND/OR OBSTRUCTIONS TO VISIBILITY. N/A MEANS
CURRENT SKY AND/OR WEATHER CONDITIONS ARE NOT AVAILABLE.

MNZ060>063-068>070-190600-
   Twin Cities Metro

CITY           SKY/WX    TMP DP  RH WIND       PRES   REMARKS
TWIN CITIES    FAIR      34  17  50 N10       30.21R WCI  26
ST PAUL        FAIR      34  15  46 N5        30.22R WCI  30
CRYSTAL        FAIR      34  13  41 N3        30.21R
BLAINE         FAIR      36  16  44 CALM      30.21R
LAKEVILLE      FAIR      34  19  55 NE8       30.19R WCI  27
EDEN PRAIRIE   FAIR      37  15  40 NE8       30.20R
SOUTH ST PAUL  FAIR      35  15  42 N6        30.21R WCI  30
LAKE ELMO      FAIR      34  16  47 NE3       30.21R
$$
MNZ001>005-007-008-013>017-022>024-027-028-190600-
   Northwest Minnesota

CITY           SKY/WX    TMP DP  RH WIND       PRES   REMARKS
BEMIDJI        FAIR      30  15  53 W3        30.26R
HALLOCK        FAIR      34  25  69 E5        30.28R WCI  30
ROSEAU         FAIR      32  23  69 CALM      30.28R
WARROAD        FAIR      28  16  59 CALM      30.28S
THIEF RVR FALL FAIR      37  17  44 E7        30.28R
CROOKSTON      FAIR      39  23  52 E6        30.28S
FOSSTON        FAIR      32  12  43 E3        30.27R
DETROIT LAKES  FAIR      34  25  69 CALM      30.27R
MOORHEAD       FAIR      34  30  86 CALM      30.28R
PARK RAPIDS    FAIR      31  18  58 NW5       30.24R WCI  26
MAHNOMEN       FAIR      36  15  43 E5        30.26R
$$
MNZ006-009>011-018-025>026-190600-
   North Central Minnesota

CITY           SKY/WX    TMP DP  RH WIND       PRES   REMARKS
BAUDETTE       FAIR      28  22  78 CALM      30.26S
FLAG ISLAND    FAIR      28  18  64 NW5       30.27S WCI  23
INTL FALLS     FAIR      26  18  71 CALM      30.26R
WASKISH        FAIR      27  19  74 CALM      30.27R
BIG FORK       FAIR      27  18  69 CALM      30.25R
LONGVILLE      FAIR      27  21  80 CALM      30.24R
GRAND RAPIDS   FAIR      29  17  61 CALM      30.26R
CRANE LAKE     FAIR      21  19  93 CALM      30.28R
ORR            FAIR      27  10  50 CALM      30.23R
COOK           FAIR      25  18  74 CALM      30.25R
WALKER         FAIR      31  13  47 CALM      30.25R
$$
MNZ012-019>021-037-190600-
   Northeast Minnesota

CITY           SKY/WX    TMP DP  RH WIND       PRES   REMARKS
DULUTH         FAIR      29  12  49 N6        30.22R WCI  23
ELY            FAIR      27  18  69 CALM      30.23R
HIBBING        FAIR      24  15  68 CALM      30.23R
EVELETH        FAIR      26  19  75 CALM      30.25R
DULUTH HARBOR  FAIR      30  21  69 CALM      30.25R
TWO HARBORS    FAIR      28  18  64 CALM      30.21R
SILVER BAY     FAIR      25  19  80 CALM      30.21R
GRAND MARAIS     N/A     35  15  44 VRB5      30.22R WCI  31
G MARAIS ARPRT FAIR      30   9  40 N8        30.20R WCI  23
$$
MNZ029>031-032-039>041-046>048-054>057-064-190600-
   West Central Minnesota

CITY           SKY/WX    TMP DP  RH WIND       PRES   REMARKS
FERGUS FALLS   FAIR      36  25  64 CALM      30.26R
WHEATON        CLOUDY    36  28  75 W3        30.29R
MORRIS         MOCLDY    34  30  86 NW7       30.26R WCI  28
ALEXANDRIA     FAIR      36  21  54 N5        30.25R
ELBOW LAKE     FAIR      33  28  81 N3        30.27R
WADENA         FAIR      32  18  55 NW5       30.25R WCI  27
GLENWOOD       FAIR      34  25  69 CALM      30.25R
APPLETON       CLOUDY    34  28  80 CALM      30.26R
BENSON         CLOUDY    30  27  86 N6        30.27R WCI  24
ORTONVILLE     CLOUDY    36  28  75 NW5       30.27R
MADISON        CLOUDY    37  30  75 NW7       30.25R
WILLMAR        FAIR      30  27  86 NW6       30.27R WCI  24
$$
MNZ033>034-036-042>043-049>051-058-059-190600-
   Central Minnesota

CITY           SKY/WX    TMP DP  RH WIND       PRES   REMARKS
ST CLOUD       FAIR      34  13  41 E3        30.23R
SAUK CENTRE    FAIR      31  25  78 NW3       30.25R
PAYNESVILLE    FAIR      34  21  58 NE5       30.25R WCI  30
AITKIN         FAIR      23  18  80 CALM      30.23R
PINE RIVER     FAIR      27  18  69 CALM      30.27R
BRAINERD       FAIR      35  11  36 NE3       30.24R
STAPLES        FAIR      30  16  55 NW3       30.25R
LONG PRAIRIE   FAIR      34  19  55 N3        30.25R
LITTLE FALLS   FAIR      34   3  27 CALM      30.25R
LITCHFIELD     FAIR      36  18  48 NE7       30.24R
BUFFALO        FAIR      33  15  46 CALM      30.24R
MAPLE LAKE     FAIR      34  17  49 N5        30.24R WCI  30
HUTCHINSON     FAIR      36  17  47 N10       30.23R
$$
MNZ037-044-045-052-053-190600-
   East Central Minnesota

CITY           SKY/WX    TMP DP  RH WIND       PRES   REMARKS
PRINCETON      FAIR      34  16  47 N3        30.23R
MORA           FAIR      32  12  43 CALM      30.24R
RUSH CITY      FAIR      30  19  63 N6        30.22R WCI  24
MOOSE LAKE     FAIR      27  12  54 CALM      30.22R
HINCKLEY       FAIR      32  18  55 N5        30.23R WCI  27
CLOQUET        FAIR      25  16  68 NW3       30.22S
MCGREGOR       FAIR      27  21  80 CALM      30.24R
$$
MNZ071>073-080-081-089-090-097-098-190600-
   Southwest Minnesota

CITY           SKY/WX    TMP DP  RH WIND       PRES   REMARKS
MONTEVIDEO     CLOUDY    34  27  75 CALM      30.26R
GRANITE FALLS  CLOUDY    32  28  85 NW6       30.26S WCI  27
CANBY          CLOUDY    37  30  76 NW7       30.27R
MARSHALL       CLOUDY    31  27  85 NW7       30.26R WCI  24
REDWOOD FALLS  CLOUDY    33  24  69 NW8       30.23R WCI  26
OLIVIA         PTCLDY    34  25  69 N7        30.24R WCI  28
PIPESTONE      MOCLDY   N/A N/A N/A N8        30.25R
WINDOM           N/A     28  12  50 NW13      30.21R WCI  18
WORTHINGTON    CLOUDY    28  25  88 NW9       30.23R WCI  19
JACKSON        PTCLDY    30  27  86 NW12      30.21R WCI  21
TRACY          PTCLDY    33  28  80 NW9       30.23R WCI  25
SLAYTON        CLOUDY    30  24  78 N5        30.23R WCI  26
$$
MNZ065>067-074>077-082>085-091>093-190600-
   South Central Minnesota

CITY           SKY/WX    TMP DP  RH WIND       PRES   REMARKS
MANKATO        FAIR      29  25  85 NW7       30.21R WCI  22
NEW ULM        CLOUDY    25  19  80 E3        30.21R
ST JAMES       PTCLDY    27  23  86 W12       30.23R WCI  16
FAIRMONT       PTCLDY    29  27  92 NW10      30.20R WCI  20
GLENCOE        FAIR      34  16  48 N6        30.21R WCI  29
OWATONNA       FOG       18  16  93 CALM      30.18R VSB 1/4
WASECA         FOG       23  21  93 NW3       30.21R VSB 3/4
ALBERT LEA     FAIR      28  27  93 NW3       30.18R
$$
MNZ078>079-086>088-094>096-190600-
   Southeast Minnesota

CITY           SKY/WX    TMP DP  RH WIND       PRES   REMARKS
ROCHESTER      FAIR      30  26  85 N13       30.15R WCI  20
RED WING       FAIR      36  14  41 E3        30.18R
STANTON        FAIR      31  20  63 NE8       30.18R WCI  24
DODGE CENTER   FAIR      27  23  86 N7        30.16R WCI  19
WINONA         FAIR      32  30  93 NW6       30.15R WCI  26
AUSTIN         FAIR      28  27  93 NW8       30.16R WCI  20
PRESTON        FAIR      31  26  83 N9        30.13R WCI  23
$$
ABBREVIATIONS USED IN REMARKS
   TC - TEMPERATURES IN CELSIUS
  WCI - WIND CHILL INDEX
   HX - HEAT INDEX
  VSB - VISIBILITY
$$




USA.gov is the U.S. government's official web portal to all federal, state and local government web resources and services.